Torna al catalogo

CZ-6A DEB

AttivoPO
NORAD 61475·DEBRIS·🇨🇳 China

Lanciato Aug 6, 2024 da Taiyuan Satellite Launch Center

Loading…

Prossimi Passaggi (prossime 24 ore)

TLE

AggiornatoSource: Space-Track

Epoca: Sep 13, 2026, 08:37 UTC

1 61475U 24140AAH 26256.35932389  .00000249  00000-0  25639-3 0  9990
2 61475  88.3864 227.2023 0433102 200.3277 158.0161 13.38872768 98882

Traccia CZ-6A DEB in tempo reale con AllMySat

Download on the App Store